When you browse on this site, cookies collect data to enhance your experience and personalize the content and advertising you see.
Visit our Privacy Policy to learn more. By continuing to use the site, you agree to this use of cookies and data.
  • Em Portugal
  • Lista de países
  • Para 7 dias
  • Temperatura da água
  • Mapas de satélite
  • Mapa do tempo
  • Widgets de tempo
  • user-avatar
    Iniciar Sessão

    Previsão horária em Liège

    Hoje, 17 Fevereiro, Domingo

    Tempo Temperatura Precipitação Vento Pressão Humidade
    00:00 +6°C° 0 mm 2 m/s 759 mmHg 78%
    01:00 +6°C° 0 mm 2 m/s 759 mmHg 79%
    02:00 +6°C° 0 mm 2 m/s 759 mmHg 79%
    03:00 +6°C° 0 mm 2 m/s 758 mmHg 80%
    04:00 +6°C° 0 mm 2 m/s 758 mmHg 80%
    05:00 +5°C° 0 mm 2 m/s 758 mmHg 81%
    06:00 +4°C° 0 mm 3 m/s 758 mmHg 82%
    07:00 +5°C° 0 mm 3 m/s 758 mmHg 76%
    08:00 +8°C° 0 mm 3 m/s 758 mmHg 70%
    09:00 +8°C° 0 mm 4 m/s 758 mmHg 64%
    10:00 +10°C° 0 mm 4 m/s 757 mmHg 61%
    11:00 +12°C° 0 mm 4 m/s 757 mmHg 57%
    12:00 +14°C° 0 mm 4 m/s 757 mmHg 53%
    13:00 +14°C° 0 mm 4 m/s 756 mmHg 54%
    14:00 +14°C° 0 mm 4 m/s 756 mmHg 55%
    15:00 +14°C° 0 mm 4 m/s 756 mmHg 56%
    16:00 +12°C° 0 mm 4 m/s 756 mmHg 60%
    17:00 +10°C° 0 mm 4 m/s 756 mmHg 64%
    18:00 +8°C° 0 mm 4 m/s 756 mmHg 68%
    19:00 +7°C° 0 mm 4 m/s 756 mmHg 70%
    20:00 +7°C° 0 mm 4 m/s 756 mmHg 71%
    21:00 +7°C° 0 mm 3 m/s 756 mmHg 73%
    22:00 +7°C° 0 mm 3 m/s 756 mmHg 75%
    23:00 +7°C° 0 mm 3 m/s 756 mmHg 76%

    Amanhã, 18 Fevereiro, Segunda-feira

    Tempo Temperatura Precipitação Vento Pressão Humidade
    00:00 +5°C° 0 mm 3 m/s 756 mmHg 77%
    01:00 +5°C° 0 mm 3 m/s 756 mmHg 77%
    02:00 +5°C° 0 mm 3 m/s 755 mmHg 77%
    03:00 +4°C° 0 mm 3 m/s 755 mmHg 77%
    04:00 +4°C° 0 mm 3 m/s 755 mmHg 77%
    05:00 +4°C° 0 mm 3 m/s 755 mmHg 77%
    06:00 +4°C° 0 mm 3 m/s 755 mmHg 77%
    07:00 +5°C° 0 mm 3 m/s 755 mmHg 74%
    08:00 +6°C° 0 mm 4 m/s 755 mmHg 71%
    09:00 +7°C° 0 mm 4 m/s 755 mmHg 69%
    10:00 +10°C° 0 mm 4 m/s 755 mmHg 66%
    11:00 +11°C° 0 mm 4 m/s 755 mmHg 64%
    12:00 +12°C° 0 mm 4 m/s 754 mmHg 62%
    13:00 +12°C° 0 mm 4 m/s 754 mmHg 63%
    14:00 +12°C° 0 mm 4 m/s 754 mmHg 63%
    15:00 +12°C° 0 mm 4 m/s 753 mmHg 64%
    16:00 +11°C° 0 mm 4 m/s 753 mmHg 69%
    17:00 +10°C° 0 mm 4 m/s 753 mmHg 74%
    18:00 +7°C° 0 mm 4 m/s 754 mmHg 78%
    19:00 +7°C° 0 mm 4 m/s 754 mmHg 79%
    20:00 +6°C° 0 mm 4 m/s 754 mmHg 79%
    21:00 +6°C° 0 mm 4 m/s 754 mmHg 80%
    22:00 +6°C° 0 mm 4 m/s 754 mmHg 81%
    23:00 +6°C° 0 mm 4 m/s 753 mmHg 82%

    Depois de amanhã, 19 Fevereiro, Terça-feira

    Tempo Temperatura Precipitação Vento Pressão Humidade
    00:00 +6°C° 0 mm 4 m/s 753 mmHg 83%
    01:00 +6°C° 0.2 mm 4 m/s 753 mmHg 85%
    02:00 +6°C° 0.2 mm 4 m/s 753 mmHg 86%
    03:00 +6°C° 0.2 mm 4 m/s 753 mmHg 88%
    04:00 +7°C° 0.7 mm 3 m/s 753 mmHg 90%
    05:00 +7°C° 0.7 mm 3 m/s 754 mmHg 92%
    06:00 +5°C° 0.7 mm 3 m/s 754 mmHg 94%
    07:00 +7°C° 0.1 mm 3 m/s 754 mmHg 91%
    08:00 +6°C° 0.1 mm 4 m/s 755 mmHg 88%
    09:00 +6°C° 0.1 mm 4 m/s 755 mmHg 86%
    10:00 +7°C° 0 mm 4 m/s 756 mmHg 80%
    11:00 +8°C° 0 mm 5 m/s 756 mmHg 74%
    12:00 +9°C° 0 mm 5 m/s 756 mmHg 67%
    13:00 +9°C° 0 mm 5 m/s 756 mmHg 67%
    14:00 +9°C° 0 mm 5 m/s 756 mmHg 67%
    15:00 +10°C° 0 mm 4 m/s 756 mmHg 66%
    16:00 +8°C° 0.1 mm 4 m/s 756 mmHg 72%
    17:00 +8°C° 0.1 mm 3 m/s 756 mmHg 77%
    18:00 +7°C° 0.1 mm 2 m/s 757 mmHg 83%
    19:00 +6°C° 0.1 mm 2 m/s 757 mmHg 84%
    20:00 +5°C° 0.1 mm 3 m/s 757 mmHg 86%
    21:00 +5°C° 0.1 mm 3 m/s 758 mmHg 87%
    22:00 +4°C° 0 mm 3 m/s 758 mmHg 87%
    23:00 +5°C° 0 mm 2 m/s 758 mmHg 87%

    20 Fevereiro, Quarta-feira

    Tempo Temperatura Precipitação Vento Pressão Humidade
    00:00 +5°C° 0 mm 2 m/s 758 mmHg 87%
    01:00 +5°C° 0 mm 2 m/s 758 mmHg 87%
    02:00 +5°C° 0 mm 2 m/s 758 mmHg 86%
    03:00 +5°C° 0 mm 2 m/s 758 mmHg 85%
    04:00 +5°C° 0 mm 2 m/s 758 mmHg 84%
    05:00 +5°C° 0 mm 2 m/s 758 mmHg 83%
    06:00 +5°C° 0 mm 2 m/s 758 mmHg 82%
    07:00 +4°C° 0 mm 3 m/s 758 mmHg 80%
    08:00 +5°C° 0 mm 3 m/s 759 mmHg 78%
    09:00 +7°C° 0 mm 3 m/s 759 mmHg 76%
    10:00 +7°C° 0 mm 4 m/s 759 mmHg 71%
    11:00 +8°C° 0 mm 4 m/s 759 mmHg 66%
    12:00 +11°C° 0 mm 4 m/s 759 mmHg 61%
    13:00 +11°C° 0 mm 4 m/s 759 mmHg 61%
    14:00 +11°C° 0 mm 4 m/s 759 mmHg 60%
    15:00 +11°C° 0 mm 3 m/s 758 mmHg 60%
    16:00 +10°C° 0 mm 3 m/s 759 mmHg 67%
    17:00 +8°C° 0 mm 3 m/s 759 mmHg 74%
    18:00 +7°C° 0 mm 2 m/s 759 mmHg 81%
    19:00 +7°C° 0 mm 2 m/s 759 mmHg 84%
    20:00 +5°C° 0 mm 3 m/s 759 mmHg 86%
    21:00 +5°C° 0 mm 3 m/s 759 mmHg 89%
    22:00 +5°C° 0 mm 3 m/s 759 mmHg 90%
    23:00 +5°C° 0 mm 3 m/s 760 mmHg 91%

    21 Fevereiro, Quinta-feira

    Tempo Temperatura Precipitação Vento Pressão Humidade
    00:00 +5°C° 0 mm 3 m/s 760 mmHg 92%
    01:00 +5°C° 0 mm 3 m/s 760 mmHg 92%
    02:00 +6°C° 0 mm 2 m/s 760 mmHg 92%
    03:00 +6°C° 0 mm 2 m/s 760 mmHg 92%
    04:00 +6°C° 0 mm 2 m/s 760 mmHg 93%
    05:00 +6°C° 0 mm 2 m/s 760 mmHg 93%
    06:00 +5°C° 0 mm 2 m/s 760 mmHg 94%
    07:00 +5°C° 0 mm 3 m/s 761 mmHg 91%
    08:00 +7°C° 0 mm 3 m/s 761 mmHg 88%
    09:00 +8°C° 0 mm 3 m/s 761 mmHg 85%
    10:00 +10°C° 0 mm 3 m/s 761 mmHg 81%
    11:00 +11°C° 0 mm 3 m/s 761 mmHg 76%
    12:00 +12°C° 0 mm 3 m/s 761 mmHg 71%
    13:00 +12°C° 0 mm 3 m/s 761 mmHg 70%
    14:00 +12°C° 0 mm 3 m/s 761 mmHg 70%
    15:00 +12°C° 0 mm 3 m/s 761 mmHg 69%
    16:00 +12°C° 0 mm 2 m/s 761 mmHg 75%
    17:00 +10°C° 0 mm 2 m/s 762 mmHg 81%
    18:00 +9°C° 0 mm 1 m/s 762 mmHg 88%
    19:00 +9°C° 0 mm 1 m/s 762 mmHg 89%
    20:00 +8°C° 0 mm 1 m/s 763 mmHg 90%
    21:00 +8°C° 0 mm 1 m/s 763 mmHg 91%
    22:00 +8°C° 0 mm 1 m/s 763 mmHg 91%
    23:00 +7°C° 0 mm 1 m/s 763 mmHg 92%

    22 Fevereiro, Sexta-feira

    Tempo Temperatura Precipitação Vento Pressão Humidade
    00:00 +7°C° 0 mm 1 m/s 764 mmHg 92%
    01:00 +7°C° 0 mm 1 m/s 764 mmHg 93%
    02:00 +7°C° 0 mm 1 m/s 763 mmHg 93%
    03:00 +6°C° 0 mm 1 m/s 763 mmHg 93%
    04:00 +6°C° 0 mm 1 m/s 764 mmHg 93%
    05:00 +6°C° 0 mm 1 m/s 764 mmHg 93%
    06:00 +5°C° 0 mm 0 m/s 764 mmHg 94%
    07:00 +6°C° 0 mm 0 m/s 764 mmHg 91%
    08:00 +7°C° 0 mm 0 m/s 765 mmHg 88%
    09:00 +8°C° 0 mm 0 m/s 765 mmHg 84%
    10:00 +11°C° 0 mm 1 m/s 765 mmHg 80%
    11:00 +12°C° 0 mm 1 m/s 765 mmHg 76%
    12:00 +13°C° 0 mm 1 m/s 765 mmHg 72%
    13:00 +13°C° 0 mm 2 m/s 765 mmHg 73%
    14:00 +13°C° 0 mm 2 m/s 765 mmHg 74%
    15:00 +13°C° 0 mm 2 m/s 765 mmHg 75%
    16:00 +12°C° 0 mm 2 m/s 765 mmHg 80%
    17:00 +10°C° 0 mm 2 m/s 765 mmHg 85%
    18:00 +9°C° 0 mm 2 m/s 765 mmHg 89%
    19:00 +8°C° 0 mm 2 m/s 766 mmHg 89%
    20:00 +8°C° 0 mm 2 m/s 766 mmHg 89%
    21:00 +7°C° 0 mm 2 m/s 766 mmHg 89%
    22:00 +7°C° 0 mm 2 m/s 767 mmHg 90%
    23:00 +6°C° 0 mm 2 m/s 767 mmHg 91%
    Mostrar mais